SL-8 R/B, 3048

Orbit data source: Space-Track

SL-8 R/B, 3048 is space debris in LEO originally from a launch on Thu, 23 Nov 1967 UTC launched from the Plesetsk Missile And Space Complex (PKMTR). Debris objects in space refer to the collection of defunct objects orbiting the Earth. Examples of debris include non-operational satellites, rocket bodies, and fragments generated from explosions, collisions, or faulty payload assembly.

Loading next visibility...
Identifier
3048, 1967-116B
Orbit
LEO
Last TLE update
23 hours ago
Origin
Manufacturer
Yuzhnoe
Mission
Spacecraft
Bus & Motor
S3, Unknown motor
Mass
1,434 kg wet, 1,434 kg dry
Launch date (UTC)
1967-11-23 (57 years ago)
Launch vehicle
Unknown
Launch site
Plesetsk Missile And Space Complex (PKMTR)
Object type
Payload
Rocket body
Debris
Shape & HBR
Cyl, 4.2 m
Radar Cross Section
10.179 m², Large (>1 m²)

Expand to show TLE details & history

TLE from 23 hours ago
0 SL-8 R/B
1 03048U 67116B   25128.71335751  .00000868  00000-0  17597-3 0  9990
2 03048  74.0061 266.3805 0006223 124.5624 340.7867 14.62831328 46881
Epoch: 2025-05-08T17:07Z
Definitive object data (Epoch: 2025-05-08T17:07:14.088Z)
Latitude
68.08272°
Longitude
-82.32593°
Altitude
691.314 km
Speed
7.519 km/s
True Right ascension
02h 45m 03s
True Declination
67° 57' 44"
Sunlit
Object was in daylight at TLE epoch
Visualization TLE readout
Latitude
71.59816°
Longitude
-98.01542°
Altitude
691.984 km
Speed
7.519 km/s
Apparent Right ascension
11h 08m 52s
Apparent Declination
41° 37' 48"
Sunlit
Object is in daylight
Visualization observer readout
Local Sidereal Time
00:14:44
Azimuth
12.329° NNE
Elevation
-7.094°
Doppler factor
1
Orbital elements
Apogee altitude
686.037 km
Perigee altitude
677.25 km
Semi-major axis
7,059.781 km
Eccentricity
0.0006223
Inclination
74.0061°
RAAN
266.3805°
Arg. of periapsis
124.5624°
True anomaly
340.76322°
Mean anomaly
340.7867°
Eccentric anomaly
340.77496°
Mean motion
3.65895 °/min
BSTAR
0.00017597
Orbital period
98.39 mins
Loading maneuver chart data...
Loading SW <> Apogee altitude chart data...
Loading historical data...
Loading historical data...
Loading historical data...
Loading historical data...
Loading historical data...
Loading historical data...
Loading historical data...

SL-8 R/B Visibility forecast

Observer location: undefined°, undefined°

Span
Click to sort rows by Start time (UTC) header in descending order
Start Az.
Max El. time (UTC)
Max El. Az.
Max El.
End time (UTC)
End Az.
7 mins2025-05-09 19:27:19.827Z11.861° NNE2025-05-09 19:30:19.827Z55.809° ENE22.033°2025-05-09 19:34:19.827Z114.765° SE
6 mins2025-05-09 21:08:19.827Z309.455° NW2025-05-09 21:11:19.827Z246.754° WSW28.79°2025-05-09 21:14:19.827Z199.542° SSW
7 mins2025-05-10 09:48:19.827Z174.462° S2025-05-10 09:51:19.827Z114.755° SE38.197°2025-05-10 09:55:19.827Z31.759° NE
4 mins2025-05-10 11:30:19.827Z275.818° WNW2025-05-10 11:32:19.827Z305.259° NW16.167°2025-05-10 11:34:19.827Z333.268° NNW
|